contact: severine.martini@mio.osupytheas.fr, dominique.lefevre@mio.osupytheas.fr
Project:EMSO Ligure-ouest http://www.emso-fr.org/EMSO-France
Sensor Optode, line 4330 Serial 272 
DOI : "https://doi.org/10.17882/97948" 
Title:EMSO Ligure Ouest : Data BathyDock capteur Optode - deploiement "2023-04-28"
Datetime,Profondeur,Latitude,Longitude,optode_type,serial,O2_concentration,O2_saturation,Temperature,Calibrated_Phase,Temp_Compensated_Phase,phase_blue_light,phase_red_light,Amplitude_blue_light,Amplitude_red_light,thermistor_bridge
time,m,degree_north,degree_east,1,1,umol.l-1,%,degree_C,degree,degree,degree,degree,mV,mV,mV
2023-09-28T00:00:07,2420,42.8014,5.9826,4330,272,186.469,57.115,13.313,36.038,36.618,41.209,4.592,295.3,542.4,291.1
2023-09-28T00:03:07,2420,42.8014,5.9826,4330,272,186.733,57.192,13.311,36.022,36.602,41.196,4.594,295.2,542.4,291.2
2023-09-28T00:06:07,2420,42.8014,5.9826,4330,272,186.641,57.166,13.313,36.027,36.607,41.196,4.590,295.2,542.4,291.1
2023-09-28T00:09:07,2420,42.8014,5.9826,4330,272,186.941,57.258,13.312,36.007,36.587,41.181,4.594,295.3,542.4,291.2
2023-09-28T00:12:07,2420,42.8014,5.9826,4330,272,186.674,57.176,13.312,36.025,36.605,41.197,4.592,295.3,542.4,291.1
2023-09-28T00:15:08,2420,42.8014,5.9826,4330,272,186.939,57.262,13.316,36.006,36.586,41.181,4.595,295.3,542.4,291.0
2023-09-28T00:18:08,2420,42.8014,5.9826,4330,272,186.804,57.216,13.312,36.016,36.597,41.188,4.592,295.3,542.4,291.1
2023-09-28T00:21:08,2420,42.8014,5.9826,4330,272,186.630,57.165,13.314,36.027,36.607,41.196,4.590,295.3,542.4,291.1
2023-09-28T00:24:08,2420,42.8014,5.9826,4330,272,186.690,57.181,13.313,36.024,36.604,41.198,4.594,295.2,542.3,291.1
2023-09-28T00:27:08,2420,42.8014,5.9826,4330,272,186.489,57.125,13.317,36.034,36.614,41.207,4.593,295.3,542.3,291.0
2023-09-28T00:30:08,2420,42.8014,5.9826,4330,272,186.756,57.206,13.317,36.018,36.598,41.196,4.599,295.3,542.4,291.0
2023-09-28T00:33:07,2420,42.8014,5.9826,4330,272,186.612,57.169,13.322,36.025,36.605,41.199,4.594,295.3,542.4,290.8
2023-09-28T00:36:07,2420,42.8014,5.9826,4330,272,186.790,57.229,13.326,36.010,36.590,41.183,4.593,295.3,542.3,290.7
2023-09-28T00:39:07,2420,42.8014,5.9826,4330,272,186.584,57.177,13.334,36.020,36.600,41.195,4.595,295.2,542.3,290.4
2023-09-28T00:42:07,2420,42.8014,5.9826,4330,272,186.537,57.150,13.325,36.028,36.608,41.205,4.596,295.3,542.3,290.7
2023-09-28T00:45:07,2420,42.8014,5.9826,4330,272,186.868,57.250,13.324,36.007,36.587,41.182,4.594,295.3,542.3,290.8
2023-09-28T00:48:07,2420,42.8014,5.9826,4330,272,186.469,57.135,13.329,36.030,36.610,41.206,4.596,295.2,542.3,290.6
2023-09-28T00:51:07,2420,42.8014,5.9826,4330,272,186.417,57.114,13.326,36.035,36.615,41.208,4.593,295.4,542.4,290.7
2023-09-28T00:54:07,2420,42.8014,5.9826,4330,272,186.514,57.156,13.335,36.025,36.605,41.198,4.594,295.3,542.3,290.4
2023-09-28T00:57:07,2420,42.8014,5.9826,4330,272,186.740,57.220,13.331,36.011,36.592,41.187,4.595,295.3,542.2,290.5
2023-09-28T01:00:07,2420,42.8014,5.9826,4330,272,186.477,57.136,13.328,36.030,36.610,41.207,4.597,295.4,542.3,290.6
2023-09-28T01:03:07,2420,42.8014,5.9826,4330,272,186.546,57.153,13.325,36.027,36.607,41.200,4.593,295.3,542.3,290.7
2023-09-28T01:06:07,2420,42.8014,5.9826,4330,272,186.578,57.160,13.323,36.026,36.606,41.200,4.594,295.4,542.3,290.8
2023-09-28T01:09:07,2420,42.8014,5.9826,4330,272,186.369,57.109,13.333,36.034,36.614,41.212,4.598,295.4,542.3,290.5
2023-09-28T01:12:07,2420,42.8014,5.9826,4330,272,186.621,57.186,13.333,36.018,36.598,41.195,4.597,295.4,542.3,290.5
2023-09-28T01:15:07,2420,42.8014,5.9826,4330,272,186.396,57.119,13.334,36.032,36.612,41.200,4.588,295.4,542.2,290.4
2023-09-28T01:18:07,2420,42.8014,5.9826,4330,272,186.298,57.089,13.335,36.038,36.618,41.210,4.592,295.4,542.3,290.4
2023-09-28T01:21:08,2420,42.8014,5.9826,4330,272,186.343,57.113,13.342,36.031,36.612,41.203,4.591,295.4,542.2,290.2
2023-09-28T01:24:08,2420,42.8014,5.9826,4330,272,186.475,57.146,13.337,36.026,36.606,41.200,4.594,295.4,542.2,290.3
2023-09-28T01:27:08,2420,42.8014,5.9826,4330,272,186.334,57.101,13.336,36.035,36.615,41.206,4.591,295.3,542.2,290.4
2023-09-28T01:30:08,2420,42.8014,5.9826,4330,272,186.306,57.099,13.340,36.035,36.615,41.207,4.592,295.4,542.3,290.2
2023-09-28T01:33:07,2420,42.8014,5.9826,4330,272,186.538,57.175,13.344,36.018,36.598,41.194,4.595,295.4,542.3,290.1
2023-09-28T01:36:07,2420,42.8014,5.9826,4330,272,186.243,57.079,13.340,36.039,36.619,41.207,4.587,295.3,542.2,290.2
2023-09-28T01:39:07,2420,42.8014,5.9826,4330,272,186.328,57.108,13.342,36.033,36.613,41.208,4.595,295.4,542.2,290.2
2023-09-28T01:42:07,2420,42.8014,5.9826,4330,272,186.327,57.102,13.338,36.035,36.615,41.208,4.592,295.4,542.2,290.3
2023-09-28T01:45:07,2420,42.8014,5.9826,4330,272,186.428,57.124,13.331,36.032,36.612,41.207,4.596,295.4,542.3,290.5
2023-09-28T01:48:07,2420,42.8014,5.9826,4330,272,186.246,57.078,13.339,36.040,36.620,41.215,4.595,295.4,542.3,290.3
2023-09-28T01:51:07,2420,42.8014,5.9826,4330,272,186.228,57.073,13.339,36.041,36.621,41.216,4.595,295.4,542.3,290.3
2023-09-28T01:54:07,2420,42.8014,5.9826,4330,272,186.473,57.152,13.342,36.023,36.604,41.196,4.593,295.4,542.2,290.2
2023-09-28T01:57:07,2420,42.8014,5.9826,4330,272,186.122,57.037,13.336,36.049,36.629,41.221,4.592,295.4,542.3,290.4
2023-09-28T02:00:07,2420,42.8014,5.9826,4330,272,186.095,57.013,13.324,36.057,36.637,41.228,4.591,295.4,542.3,290.8
2023-09-28T02:03:07,2420,42.8014,5.9826,4330,272,186.273,57.070,13.326,36.045,36.625,41.221,4.596,295.5,542.3,290.7
2023-09-28T02:06:07,2420,42.8014,5.9826,4330,272,186.457,57.124,13.323,36.033,36.613,41.207,4.594,295.4,542.3,290.8
2023-09-28T02:09:07,2420,42.8014,5.9826,4330,272,186.517,57.142,13.323,36.029,36.609,41.200,4.591,295.4,542.3,290.8
2023-09-28T02:12:07,2420,42.8014,5.9826,4330,272,186.839,57.236,13.319,36.011,36.591,41.188,4.597,295.4,542.4,290.9
2023-09-28T02:15:07,2420,42.8014,5.9826,4330,272,186.539,57.142,13.318,36.031,36.611,41.204,4.593,295.4,542.4,291.0
2023-09-28T02:18:07,2420,42.8014,5.9826,4330,272,186.399,57.104,13.322,36.038,36.618,41.213,4.595,295.4,542.4,290.8
2023-09-28T02:21:07,2420,42.8014,5.9826,4330,272,186.477,57.130,13.324,36.032,36.612,41.207,4.595,295.4,542.4,290.8
2023-09-28T02:24:07,2420,42.8014,5.9826,4330,272,186.332,57.100,13.335,36.036,36.616,41.210,4.594,295.3,542.3,290.4
2023-09-28T02:27:08,2420,42.8014,5.9826,4330,272,186.493,57.151,13.336,36.025,36.605,41.198,4.593,295.3,542.3,290.4
2023-09-28T02:30:08,2420,42.8014,5.9826,4330,272,186.291,57.088,13.336,36.038,36.618,41.210,4.592,295.4,542.4,290.4
2023-09-28T02:33:07,2420,42.8014,5.9826,4330,272,186.291,57.095,13.341,36.035,36.615,41.207,4.592,295.3,542.2,290.2
2023-09-28T02:36:07,2420,42.8014,5.9826,4330,272,186.184,57.057,13.337,36.045,36.625,41.211,4.586,295.4,542.3,290.3
2023-09-28T02:39:07,2420,42.8014,5.9826,4330,272,186.344,57.105,13.336,36.035,36.615,41.208,4.593,295.4,542.3,290.4
2023-09-28T02:42:07,2420,42.8014,5.9826,4330,272,186.321,57.088,13.328,36.041,36.621,41.213,4.592,295.4,542.3,290.6
2023-09-28T02:45:07,2420,42.8014,5.9826,4330,272,186.517,57.137,13.319,36.031,36.612,41.206,4.594,295.4,542.3,290.9
2023-09-28T02:48:07,2420,42.8014,5.9826,4330,272,186.624,57.174,13.323,36.023,36.603,41.200,4.596,295.4,542.3,290.8
2023-09-28T02:51:07,2420,42.8014,5.9826,4330,272,186.502,57.136,13.322,36.031,36.611,41.200,4.589,295.3,542.3,290.8
2023-09-28T02:54:07,2420,42.8014,5.9826,4330,272,186.284,57.073,13.326,36.044,36.624,41.215,4.591,295.4,542.3,290.7
2023-09-28T02:57:07,2420,42.8014,5.9826,4330,272,186.461,57.129,13.326,36.032,36.612,41.204,4.592,295.4,542.3,290.7
2023-09-28T03:00:07,2420,42.8014,5.9826,4330,272,186.640,57.179,13.323,36.022,36.602,41.202,4.600,295.3,542.4,290.8
2023-09-28T03:03:07,2420,42.8014,5.9826,4330,272,186.435,57.120,13.325,36.034,36.614,41.206,4.592,295.3,542.3,290.7
2023-09-28T03:06:07,2420,42.8014,5.9826,4330,272,186.503,57.140,13.325,36.030,36.610,41.207,4.597,295.3,542.4,290.7
2023-09-28T03:09:07,2420,42.8014,5.9826,4330,272,186.637,57.183,13.327,36.020,36.601,41.196,4.595,295.3,542.3,290.7
2023-09-28T03:12:07,2420,42.8014,5.9826,4330,272,186.640,57.180,13.323,36.021,36.602,41.193,4.591,295.4,542.3,290.8
2023-09-28T03:15:07,2420,42.8014,5.9826,4330,272,186.450,57.122,13.324,36.034,36.614,41.206,4.592,295.4,542.3,290.8
2023-09-28T03:18:07,2420,42.8014,5.9826,4330,272,186.620,57.173,13.323,36.024,36.604,41.199,4.595,295.3,542.4,290.8
2023-09-28T03:21:07,2420,42.8014,5.9826,4330,272,186.386,57.109,13.329,36.035,36.615,41.212,4.596,295.3,542.4,290.6
2023-09-28T03:24:08,2420,42.8014,5.9826,4330,272,186.774,57.231,13.331,36.009,36.589,41.184,4.594,295.4,542.3,290.5
2023-09-28T03:27:08,2420,42.8014,5.9826,4330,272,186.468,57.134,13.329,36.030,36.610,41.202,4.592,295.3,542.3,290.6
2023-09-28T03:30:08,2420,42.8014,5.9826,4330,272,186.430,57.127,13.333,36.031,36.611,41.207,4.596,295.3,542.3,290.5
2023-09-28T03:33:07,2420,42.8014,5.9826,4330,272,186.247,57.072,13.333,36.042,36.622,41.212,4.590,295.3,542.3,290.5
2023-09-28T03:36:07,2420,42.8014,5.9826,4330,272,186.368,57.105,13.330,36.037,36.617,41.205,4.588,295.3,542.3,290.6
2023-09-28T03:39:07,2420,42.8014,5.9826,4330,272,186.498,57.144,13.330,36.028,36.608,41.203,4.595,295.5,542.3,290.6
2023-09-28T03:42:07,2420,42.8014,5.9826,4330,272,186.309,57.088,13.331,36.039,36.619,41.212,4.593,295.5,542.3,290.5
2023-09-28T03:45:07,2420,42.8014,5.9826,4330,272,186.242,57.069,13.332,36.043,36.623,41.217,4.594,295.3,542.2,290.5
2023-09-28T03:48:07,2420,42.8014,5.9826,4330,272,186.189,57.052,13.331,36.047,36.627,41.218,4.591,295.4,542.3,290.5
2023-09-28T03:51:07,2420,42.8014,5.9826,4330,272,186.308,57.089,13.332,36.039,36.619,41.207,4.588,295.5,542.3,290.5
2023-09-28T03:54:07,2420,42.8014,5.9826,4330,272,186.470,57.142,13.334,36.027,36.608,41.202,4.595,295.4,542.3,290.4
2023-09-28T03:57:07,2420,42.8014,5.9826,4330,272,186.297,57.097,13.341,36.035,36.616,41.212,4.597,295.4,542.3,290.2
2023-09-28T04:00:08,2420,42.8014,5.9826,4330,272,186.310,57.097,13.338,36.036,36.616,41.209,4.594,295.4,542.3,290.3
2023-09-28T04:03:07,2420,42.8014,5.9826,4330,272,186.214,57.067,13.338,36.043,36.623,41.213,4.591,295.4,542.3,290.3
2023-09-28T04:06:07,2420,42.8014,5.9826,4330,272,186.212,57.068,13.339,36.042,36.622,41.215,4.593,295.3,542.3,290.3
2023-09-28T04:09:07,2420,42.8014,5.9826,4330,272,186.273,57.087,13.339,36.038,36.618,41.214,4.596,295.4,542.3,290.3
2023-09-28T04:12:07,2420,42.8014,5.9826,4330,272,186.310,57.092,13.334,36.038,36.618,41.211,4.593,295.3,542.3,290.4
2023-09-28T04:15:07,2420,42.8014,5.9826,4330,272,186.462,57.137,13.332,36.029,36.609,41.200,4.592,295.5,542.3,290.5
2023-09-28T04:18:08,2420,42.8014,5.9826,4330,272,186.419,57.124,13.333,36.031,36.611,41.205,4.593,295.4,542.3,290.5
2023-09-28T04:21:08,2420,42.8014,5.9826,4330,272,186.221,57.068,13.337,36.042,36.622,41.211,4.589,295.4,542.3,290.3
2023-09-28T04:24:08,2420,42.8014,5.9826,4330,272,186.314,57.099,13.339,36.035,36.615,41.205,4.590,295.4,542.2,290.3
2023-09-28T04:27:08,2420,42.8014,5.9826,4330,272,186.203,57.053,13.329,36.047,36.627,41.221,4.594,295.5,542.3,290.6
2023-09-28T04:30:08,2420,42.8014,5.9826,4330,272,186.092,57.019,13.329,36.054,36.634,41.225,4.591,295.5,542.3,290.6
2023-09-28T04:33:07,2420,42.8014,5.9826,4330,272,186.477,57.134,13.327,36.030,36.611,41.202,4.592,295.4,542.2,290.7
2023-09-28T04:36:07,2420,42.8014,5.9826,4330,272,186.140,57.039,13.333,36.049,36.629,41.225,4.596,295.4,542.2,290.5
2023-09-28T04:39:07,2420,42.8014,5.9826,4330,272,186.181,57.056,13.337,36.045,36.625,41.219,4.595,295.4,542.3,290.3
2023-09-28T04:42:07,2420,42.8014,5.9826,4330,272,186.372,57.111,13.334,36.033,36.613,41.205,4.591,295.4,542.3,290.4
2023-09-28T04:45:07,2420,42.8014,5.9826,4330,272,186.377,57.115,13.336,36.033,36.613,41.207,4.594,295.3,542.3,290.4
2023-09-28T04:48:07,2420,42.8014,5.9826,4330,272,185.906,56.975,13.339,36.062,36.642,41.232,4.590,295.4,542.2,290.3
2023-09-28T04:51:07,2420,42.8014,5.9826,4330,272,186.363,57.118,13.342,36.031,36.611,41.204,4.593,295.4,542.2,290.2
2023-09-28T04:54:07,2420,42.8014,5.9826,4330,272,186.400,57.129,13.342,36.029,36.609,41.203,4.595,295.4,542.2,290.2
2023-09-28T04:57:07,2420,42.8014,5.9826,4330,272,186.289,57.093,13.340,36.036,36.616,41.209,4.593,295.4,542.2,290.3
2023-09-28T05:00:08,2420,42.8014,5.9826,4330,272,186.312,57.099,13.339,36.035,36.616,41.208,4.592,295.4,542.2,290.3
2023-09-28T05:03:07,2420,42.8014,5.9826,4330,272,186.097,57.031,13.337,36.050,36.630,41.225,4.595,295.4,542.3,290.3
2023-09-28T05:06:07,2420,42.8014,5.9826,4330,272,186.436,57.135,13.338,36.028,36.608,41.202,4.593,295.4,542.2,290.3
2023-09-28T05:09:07,2420,42.8014,5.9826,4330,272,186.170,57.052,13.336,36.046,36.626,41.217,4.590,295.3,542.2,290.4
2023-09-28T05:12:07,2420,42.8014,5.9826,4330,272,186.035,57.010,13.335,36.055,36.635,41.227,4.592,295.4,542.3,290.4
2023-09-28T05:15:08,2420,42.8014,5.9826,4330,272,186.286,57.090,13.338,36.038,36.618,41.207,4.590,295.4,542.2,290.3
2023-09-28T05:18:08,2420,42.8014,5.9826,4330,272,186.380,57.118,13.337,36.032,36.612,41.207,4.595,295.4,542.3,290.3
2023-09-28T05:21:08,2420,42.8014,5.9826,4330,272,186.441,57.136,13.337,36.028,36.608,41.200,4.592,295.4,542.3,290.3
2023-09-28T05:24:08,2420,42.8014,5.9826,4330,272,186.381,57.119,13.338,36.031,36.611,41.200,4.589,295.4,542.2,290.3
2023-09-28T05:27:08,2420,42.8014,5.9826,4330,272,186.270,57.083,13.337,36.039,36.619,41.210,4.591,295.4,542.3,290.3
2023-09-28T05:30:08,2420,42.8014,5.9826,4330,272,186.088,57.027,13.337,36.051,36.631,41.222,4.591,295.3,542.2,290.4
2023-09-28T05:33:07,2420,42.8014,5.9826,4330,272,186.197,57.059,13.335,36.045,36.625,41.219,4.593,295.4,542.3,290.4
2023-09-28T05:36:07,2420,42.8014,5.9826,4330,272,186.190,57.055,13.334,36.046,36.626,41.221,4.596,295.4,542.3,290.4
2023-09-28T05:39:07,2420,42.8014,5.9826,4330,272,186.357,57.104,13.332,36.036,36.616,41.216,4.600,295.5,542.3,290.5
2023-09-28T05:42:07,2420,42.8014,5.9826,4330,272,186.283,57.084,13.334,36.040,36.620,41.212,4.593,295.4,542.2,290.4
2023-09-28T05:45:07,2420,42.8014,5.9826,4330,272,186.408,57.123,13.335,36.031,36.611,41.203,4.593,295.5,542.3,290.4
2023-09-28T05:48:07,2420,42.8014,5.9826,4330,272,186.217,57.065,13.335,36.043,36.623,41.216,4.593,295.5,542.2,290.4
2023-09-28T05:51:07,2420,42.8014,5.9826,4330,272,186.243,57.073,13.335,36.042,36.622,41.216,4.594,295.4,542.3,290.4
2023-09-28T05:54:08,2420,42.8014,5.9826,4330,272,186.530,57.158,13.333,36.024,36.604,41.198,4.594,295.5,542.3,290.5
2023-09-28T05:57:08,2420,42.8014,5.9826,4330,272,186.189,57.044,13.326,36.049,36.629,41.225,4.595,295.6,542.4,290.7
2023-09-28T06:00:08,2420,42.8014,5.9826,4330,272,186.301,57.081,13.328,36.041,36.622,41.209,4.587,295.4,542.3,290.6
2023-09-28T06:03:07,2420,42.8014,5.9826,4330,272,186.026,56.993,13.325,36.061,36.641,41.231,4.590,295.4,542.4,290.7
2023-09-28T06:06:07,2420,42.8014,5.9826,4330,272,186.511,57.140,13.323,36.030,36.610,41.203,4.593,295.4,542.4,290.8
2023-09-28T06:09:07,2420,42.8014,5.9826,4330,272,186.530,57.150,13.326,36.027,36.608,41.202,4.594,295.4,542.4,290.7
2023-09-28T06:12:07,2420,42.8014,5.9826,4330,272,186.405,57.108,13.323,36.037,36.617,41.212,4.596,295.4,542.3,290.8
2023-09-28T06:15:07,2420,42.8014,5.9826,4330,272,186.372,57.097,13.323,36.039,36.619,41.211,4.592,295.4,542.4,290.8
2023-09-28T06:18:07,2420,42.8014,5.9826,4330,272,186.489,57.129,13.320,36.033,36.613,41.208,4.594,295.3,542.4,290.9
2023-09-28T06:21:07,2420,42.8014,5.9826,4330,272,186.512,57.141,13.324,36.029,36.609,41.204,4.595,295.3,542.3,290.8
2023-09-28T06:24:07,2420,42.8014,5.9826,4330,272,186.555,57.152,13.322,36.028,36.608,41.201,4.593,295.4,542.3,290.8
2023-09-28T06:27:08,2420,42.8014,5.9826,4330,272,186.403,57.112,13.327,36.036,36.616,41.207,4.592,295.4,542.4,290.7
2023-09-28T06:30:08,2420,42.8014,5.9826,4330,272,186.371,57.097,13.323,36.039,36.619,41.214,4.595,295.3,542.3,290.8
2023-09-28T06:33:07,2420,42.8014,5.9826,4330,272,186.475,57.132,13.326,36.031,36.611,41.205,4.594,295.4,542.3,290.7
2023-09-28T06:36:07,2420,42.8014,5.9826,4330,272,186.399,57.114,13.330,36.034,36.614,41.209,4.595,295.4,542.3,290.6
2023-09-28T06:39:07,2420,42.8014,5.9826,4330,272,186.449,57.126,13.327,36.032,36.612,41.205,4.593,295.4,542.4,290.7
2023-09-28T06:42:07,2420,42.8014,5.9826,4330,272,186.412,57.103,13.318,36.039,36.619,41.210,4.591,295.4,542.3,291.0
2023-09-28T06:45:07,2420,42.8014,5.9826,4330,272,186.491,57.132,13.322,36.032,36.612,41.207,4.595,295.4,542.3,290.8
2023-09-28T06:48:07,2420,42.8014,5.9826,4330,272,186.523,57.144,13.323,36.030,36.610,41.206,4.596,295.3,542.4,290.8
2023-09-28T06:51:08,2420,42.8014,5.9826,4330,272,186.542,57.145,13.320,36.030,36.610,41.202,4.592,295.4,542.4,290.9
2023-09-28T06:54:08,2420,42.8014,5.9826,4330,272,186.598,57.163,13.320,36.026,36.606,41.200,4.594,295.4,542.4,290.9
2023-09-28T06:57:08,2420,42.8014,5.9826,4330,272,186.408,57.106,13.321,36.038,36.618,41.210,4.592,295.4,542.4,290.9
2023-09-28T07:00:08,2420,42.8014,5.9826,4330,272,186.488,57.127,13.319,36.034,36.614,41.205,4.591,295.5,542.3,290.9
2023-09-28T07:03:07,2420,42.8014,5.9826,4330,272,186.633,57.178,13.324,36.022,36.602,41.193,4.591,295.3,542.4,290.8
2023-09-28T07:06:07,2420,42.8014,5.9826,4330,272,186.441,57.119,13.324,36.035,36.615,41.208,4.594,295.3,542.4,290.8
2023-09-28T07:09:07,2420,42.8014,5.9826,4330,272,186.599,57.167,13.324,36.024,36.604,41.198,4.593,295.4,542.4,290.8
2023-09-28T07:12:07,2420,42.8014,5.9826,4330,272,186.566,57.157,13.324,36.027,36.607,41.199,4.592,295.4,542.4,290.8
2023-09-28T07:15:07,2420,42.8014,5.9826,4330,272,186.500,57.136,13.323,36.031,36.611,41.204,4.593,295.4,542.4,290.8
2023-09-28T07:18:07,2420,42.8014,5.9826,4330,272,186.548,57.152,13.323,36.028,36.608,41.201,4.594,295.4,542.3,290.8
2023-09-28T07:21:08,2420,42.8014,5.9826,4330,272,186.240,57.055,13.322,36.048,36.628,41.219,4.591,295.4,542.4,290.8
2023-09-28T07:24:08,2420,42.8014,5.9826,4330,272,186.353,57.090,13.322,36.041,36.621,41.212,4.591,295.4,542.3,290.8
2023-09-28T07:27:08,2420,42.8014,5.9826,4330,272,186.215,57.044,13.319,36.051,36.631,41.223,4.592,295.4,542.4,290.9
2023-09-28T07:30:08,2420,42.8014,5.9826,4330,272,186.454,57.119,13.320,36.035,36.615,41.211,4.596,295.5,542.4,290.9
2023-09-28T07:33:07,2420,42.8014,5.9826,4330,272,186.288,57.069,13.321,36.046,36.626,41.216,4.591,295.4,542.3,290.9
2023-09-28T07:36:07,2420,42.8014,5.9826,4330,272,186.534,57.145,13.322,36.029,36.610,41.204,4.595,295.4,542.4,290.8
2023-09-28T07:39:07,2420,42.8014,5.9826,4330,272,186.515,57.140,13.322,36.030,36.611,41.209,4.598,295.4,542.4,290.8
2023-09-28T07:42:07,2420,42.8014,5.9826,4330,272,186.488,57.129,13.320,36.033,36.613,41.205,4.592,295.4,542.4,290.9
2023-09-28T07:45:07,2420,42.8014,5.9826,4330,272,186.428,57.107,13.317,36.038,36.618,41.212,4.594,295.5,542.5,291.0
2023-09-28T07:48:07,2420,42.8014,5.9826,4330,272,186.634,57.168,13.316,36.026,36.606,41.198,4.592,295.5,542.4,291.0
2023-09-28T07:51:07,2420,42.8014,5.9826,4330,272,186.593,57.157,13.317,36.028,36.608,41.207,4.599,295.5,542.4,291.0
2023-09-28T07:54:07,2420,42.8014,5.9826,4330,272,186.767,57.210,13.317,36.017,36.597,41.194,4.597,295.4,542.4,291.0
2023-09-28T07:57:08,2420,42.8014,5.9826,4330,272,186.521,57.138,13.319,36.032,36.612,41.205,4.593,295.4,542.4,290.9
2023-09-28T08:00:08,2420,42.8014,5.9826,4330,272,186.190,57.037,13.320,36.053,36.632,41.225,4.592,295.3,542.4,290.9
2023-09-28T08:03:07,2420,42.8014,5.9826,4330,272,186.381,57.098,13.322,36.039,36.619,41.214,4.595,295.4,542.4,290.8
2023-09-28T08:06:07,2420,42.8014,5.9826,4330,272,186.409,57.106,13.321,36.038,36.618,41.209,4.591,295.5,542.4,290.9
2023-09-28T08:09:07,2420,42.8014,5.9826,4330,272,186.363,57.095,13.323,36.040,36.620,41.213,4.594,295.4,542.4,290.8
2023-09-28T08:12:07,2420,42.8014,5.9826,4330,272,186.604,57.170,13.324,36.023,36.603,41.201,4.597,295.4,542.3,290.8
2023-09-28T08:15:07,2420,42.8014,5.9826,4330,272,186.392,57.108,13.327,36.036,36.616,41.207,4.591,295.4,542.3,290.7
2023-09-28T08:18:07,2420,42.8014,5.9826,4330,272,186.323,57.091,13.330,36.039,36.619,41.212,4.593,295.4,542.3,290.6
2023-09-28T08:21:07,2420,42.8014,5.9826,4330,272,186.060,57.006,13.327,36.058,36.638,41.230,4.592,295.4,542.3,290.7
2023-09-28T08:24:07,2420,42.8014,5.9826,4330,272,186.249,57.064,13.326,36.046,36.626,41.218,4.592,295.5,542.3,290.7
2023-09-28T08:27:07,2420,42.8014,5.9826,4330,272,186.318,57.086,13.327,36.041,36.621,41.213,4.592,295.5,542.4,290.7
2023-09-28T08:30:07,2420,42.8014,5.9826,4330,272,186.374,57.097,13.322,36.039,36.619,41.211,4.591,295.4,542.4,290.8
2023-09-28T08:33:08,2420,42.8014,5.9826,4330,272,186.288,57.070,13.322,36.045,36.625,41.219,4.595,295.5,542.4,290.8
2023-09-28T08:36:08,2420,42.8014,5.9826,4330,272,186.528,57.144,13.322,36.029,36.609,41.205,4.596,295.4,542.4,290.8
2023-09-28T08:39:07,2420,42.8014,5.9826,4330,272,186.242,57.060,13.325,36.046,36.626,41.223,4.596,295.5,542.4,290.7
2023-09-28T08:42:07,2420,42.8014,5.9826,4330,272,186.257,57.067,13.327,36.045,36.625,41.218,4.592,295.4,542.4,290.7
2023-09-28T08:45:07,2420,42.8014,5.9826,4330,272,186.141,57.031,13.326,36.053,36.633,41.220,4.588,295.4,542.3,290.7
2023-09-28T08:48:07,2420,42.8014,5.9826,4330,272,186.460,57.125,13.324,36.033,36.613,41.208,4.595,295.5,542.4,290.8
2023-09-28T08:51:07,2420,42.8014,5.9826,4330,272,186.174,57.039,13.325,36.051,36.631,41.223,4.592,295.4,542.4,290.7
2023-09-28T08:54:07,2420,42.8014,5.9826,4330,272,186.302,57.079,13.326,36.043,36.623,41.215,4.592,295.4,542.4,290.7
2023-09-28T08:57:08,2420,42.8014,5.9826,4330,272,186.269,57.075,13.330,36.042,36.622,41.214,4.592,295.4,542.3,290.6
2023-09-28T09:00:08,2420,42.8014,5.9826,4330,272,186.412,57.110,13.323,36.036,36.617,41.209,4.593,295.5,542.3,290.8
2023-09-28T09:03:07,2420,42.8014,5.9826,4330,272,186.181,57.040,13.324,36.051,36.631,41.225,4.594,295.5,542.3,290.8
2023-09-28T09:06:07,2420,42.8014,5.9826,4330,272,186.065,57.003,13.323,36.059,36.639,41.233,4.594,295.5,542.3,290.8
2023-09-28T09:09:07,2420,42.8014,5.9826,4330,272,186.479,57.136,13.327,36.030,36.610,41.205,4.595,295.4,542.4,290.7
2023-09-28T09:12:07,2420,42.8014,5.9826,4330,272,186.231,57.055,13.324,36.048,36.628,41.218,4.590,295.5,542.4,290.8
2023-09-28T09:15:07,2420,42.8014,5.9826,4330,272,186.464,57.130,13.326,36.031,36.611,41.209,4.598,295.4,542.3,290.7
2023-09-28T09:18:07,2420,42.8014,5.9826,4330,272,186.373,57.103,13.328,36.037,36.617,41.210,4.592,295.5,542.3,290.6
2023-09-28T09:21:07,2420,42.8014,5.9826,4330,272,185.873,56.961,13.336,36.065,36.645,41.234,4.589,295.5,542.3,290.4
2023-09-28T09:24:07,2420,42.8014,5.9826,4330,272,186.235,57.064,13.330,36.045,36.625,41.221,4.596,295.4,542.4,290.6
2023-09-28T09:27:07,2420,42.8014,5.9826,4330,272,186.371,57.103,13.328,36.037,36.617,41.211,4.594,295.4,542.4,290.6
2023-09-28T09:30:07,2420,42.8014,5.9826,4330,272,186.387,57.107,13.327,36.037,36.617,41.209,4.593,295.5,542.4,290.7
2023-09-28T09:33:07,2420,42.8014,5.9826,4330,272,186.270,57.076,13.331,36.042,36.622,41.217,4.595,295.4,542.2,290.5
2023-09-28T09:36:07,2420,42.8014,5.9826,4330,272,186.432,57.121,13.328,36.033,36.613,41.210,4.597,295.4,542.4,290.7
2023-09-28T09:39:07,2420,42.8014,5.9826,4330,272,186.278,57.085,13.336,36.039,36.619,41.210,4.590,295.4,542.3,290.4
2023-09-28T09:42:07,2420,42.8014,5.9826,4330,272,186.272,57.071,13.326,36.044,36.624,41.218,4.594,295.4,542.3,290.7
2023-09-28T09:45:08,2420,42.8014,5.9826,4330,272,186.267,57.066,13.324,36.046,36.626,41.218,4.592,295.4,542.4,290.8
2023-09-28T09:48:08,2420,42.8014,5.9826,4330,272,186.364,57.095,13.323,36.040,36.620,41.214,4.594,295.4,542.3,290.8
2023-09-28T09:51:08,2420,42.8014,5.9826,4330,272,186.301,57.079,13.326,36.042,36.622,41.214,4.592,295.4,542.3,290.7
2023-09-28T09:54:08,2420,42.8014,5.9826,4330,272,186.432,57.115,13.323,36.035,36.615,41.212,4.598,295.5,542.3,290.8
2023-09-28T09:57:08,2420,42.8014,5.9826,4330,272,186.291,57.078,13.327,36.042,36.622,41.217,4.594,295.4,542.4,290.7
2023-09-28T10:00:07,2420,42.8014,5.9826,4330,272,186.108,57.026,13.331,36.052,36.632,41.221,4.589,295.3,542.2,290.5